Regional Weather Roundup
Issued by NWS Bismarck, ND

Home | Current Version | Previous Version | Text Only | Print | Product List | Glossary On
Versions: 1 2 3 4 5 6 7 8 9 10 11 12 13 14 15 16 17 18 19 20 21 22 23 24 25 26 27 28 29 30 31 32 33 34 35 36 37 38 39 40 41 42 43 44 45 46 47 48 49 50
000
ASUS43 KBIS 311802
RWRBIS

NWR BROADCAST TEXT
NATIONAL WEATHER SERVICE BISMARCK ND
100 PM CDT MON AUG 31 2015

NOTE: "FAIR" INDICATES FEW OR NO CLOUDS BELOW 12,000 FEET WITH NO
SIGNIFICANT WEATHER AND/OR OBSTRUCTIONS TO VISIBILITY.


CITY           SKY/WX    TMP DP  RH WIND       PRES   REMARKS
WILLISTON      SUNNY     74  40  29 W15G23    29.87F
MINOT          SUNNY     74  43  32 W20G26    29.84S
MINOT AFB      SUNNY     74  43  32 W14G28    29.81F
BISMARCK       PTSUNNY   76  52  43 NW12      29.90R
DICKINSON      SUNNY     74  41  30 W15       29.93F
GARRISON         N/A     73  47  39 W17G24    29.88S
HETTINGER ARPT PTSUNNY   75  43  31 W13       29.97S
JAMESTOWN      PTSUNNY   75  60  59 N12G20    29.83R
HAZEN          FAIR      75  45  33 W14G21    29.89F
OAKES            N/A     79  75  89 N16       29.81R
STANLEY        FAIR      70  43  37 W17G28    29.87F
$$

CITY           SKY/WX    TMP DP  RH WIND       PRES   REMARKS
GRAND FORKS    PTSUNNY   80  63  55 N14       29.75R
GRAND FORKS AF PTSUNNY   78  63  59 N17       29.77R
DEVILS LAKE    MOSUNNY   73  54  49 W14G23    29.79S
FARGO          PTSUNNY   81  65  58 W12       29.76R
CAVALIER       FAIR      75  63  64 NW5       29.74F
GRAFTON        FAIR      77  63  61 W12G17    29.76S
GWINNER        FAIR      81  66  61 NW10      29.79S
LANGDON        FAIR      81  52  36 W17       29.78R
$$

CITY           SKY/WX    TMP DP  RH WIND       PRES   REMARKS
ABERDEEN       PTSUNNY   77  63  61 NW9       29.84R
MOBRIDGE       CLOUDY    74  61  63 N17       29.85F
RAPID CITY     CLOUDY    70  55  59 N12       30.02R
GLASGOW        SUNNY     71  40  32 W15       29.87F
SIDNEY         SUNNY     73  37  27 SW14G24   29.89F
WOLF POINT     SUNNY     72  42  34 W16G24    29.88F
GLENDIVE       SUNNY     73  36  25 W15G21    29.94F
MILES CITY     SUNNY     72  42  34 S6        29.95F
BAKER          SUNNY     71  41  33 W9        29.99F
$$

CITY           SKY/WX    TMP DP  RH WIND       PRES   REMARKS
BILLINGS       PTSUNNY   69  39  33 CALM      29.99F
GREAT FALLS    MOSUNNY   69  33  26 SW25G35   29.93F
$$



USA.gov is the U.S. government's official web portal to all federal, state and local government web resources and services.